Location: Brno
(49.2000°N, 16.6330°E)
Time: 01:22:53
(UTC+02:00)

Iridium 2 - Visible Passes

Search period start: 22 April 2015 00:00
Search period end: 02 May 2015 00:00
Orbit: 521 x 539 km, 85.5° (Epoch: 21 April)

Date Brightness Start Highest point End Pass type
(mag) Time Alt. Az. Time Alt. Az. Time Alt. Az.
26 Apr 7.5 21:18:18 10° WNW 21:19:04 10° WNW 21:19:39 10° WNW visible
27 Apr 7.3 21:07:02 10° W 21:08:28 11° WNW 21:09:43 10° NW visible
28 Apr 7.2 20:56:00 10° W 20:57:50 13° WNW 20:59:31 10° NW visible
29 Apr 7.1 20:45:03 10° WSW 20:47:12 14° WNW 20:49:12 10° NW visible
